Вернуться в каталог

STARLINK-37518

АктивенСвязьVLEO
NORAD 69259·PAYLOAD·🇺🇸 United States

Запущен May 29, 2026 с Cape Canaveral Space Force Station

Loading…

Ближайшие Пролёты (ближайшие 24 часа)

TLE

СвежийSource: CelesTrak SupGP

Эпоха: Sep 14, 2026, 21:28 UTC

1 69259C 26117X   26257.89493056 -.00015516  00000+0 -45831-3 0  2574
2 69259  53.1579 180.2457 0001269  87.9158 221.8910 15.34406505    13

Отслеживайте STARLINK-37518 в реальном времени с AllMySat

Download on the App Store